Wind_Speed
8 6 3 10 9 9 8 9 11 8 5 5 3 4 7 6 4 4 6 9 6 5 6 8 8 18 13 11 12 10 13 12 15 17 16 12 9 6 6 8 9 8 8 8 5 6 8 9 9
8 6 1 5 7 8 7 7 6 7 3 4 4 3 2 3 3 5 4 4 4 5 7 7 5 7 11 8 9 10 14 12 14 18 16 13 10 10 12 12 10 9 11 9 8 8 8 10 11
7 6 7 8 7 6 7 8 6 6 6 5 4 4 5 0 2 2 4 4 4 3 4 6 7 7 9 6 7 14 16 22 21 19 15 14 14 12 11 11 10 11 9 9 10 8 8 10 9
5 4 5 8 6 7 5 5 7 7 6 6 5 4 8 6 2 2 4 4 3 2 1 8 11 10 13 13 18 21 26 26 20 18 17 15 14 12 11 11 12 11 11 10 9 10 11 10 9
5 7 6 4 7 8 3 5 5 6 6 6 4 3 7 8 3 3 3 3 1 3 5 7 14 13 17 13 12 18 24 25 23 20 16 16 15 12 11 11 10 11 11 8 10 11 11 10 9
6 3 2 2 1 2 5 2 4 7 5 5 4 2 7 8 4 1 2 2 5 2 6 11 15 13 13 15 17 23 21 17 16 16 14 13 16 16 13 12 10 10 11 10 11 9 10 11 10
7 12 7 6 2 2 1 5 7 5 4 6 5 3 6 9 4 1 2 3 5 4 4 8 13 20 18 17 15 16 16 16 13 10 12 12 12 13 12 9 11 10 10 11 10 9 10 10 8
14 15 14 9 6 6 6 8 7 5 4 6 4 5 2 7 5 3 2 3 3 6 10 9 10 14 14 14 13 13 14 12 12 10 9 12 12 12 10 9 10 11 10 10 8 8 9 8 6
9 3 17 11 5 5 4 3 9 8 10 8 3 7 5 6 5 3 5 5 7 9 11 8 10 12 11 11 13 14 13 13 13 12 12 11 12 11 9 8 9 10 8 8 9 9 8 6 5
9 8 14 14 6 4 8 7 11 9 10 9 5 7 8 7 6 4 6 6 9 12 12 10 11 13 12 11 12 13 14 14 12 12 12 13 12 11 9 8 11 9 9 9 10 8 6 6 4
8 6 16 18 9 5 8 6 9 9 12 9 4 7 9 10 9 6 6 5 9 12 12 12 11 13 15 14 12 13 13 13 14 12 12 12 11 10 10 9 9 6 5 7 7 6 6 7 6
9 2 18 16 12 7 7 6 3 5 12 7 3 10 10 10 6 5 6 6 9 13 12 10 11 11 13 14 12 11 12 12 13 13 13 12 12 11 11 9 9 5 6 6 5 5 6 6 6
11 12 10 12 15 14 8 7 7 9 9 6 5 11 8 9 7 8 13 15 16 16 13 10 10 11 12 14 13 12 12 12 13 15 14 13 13 14 12 10 11 8 8 7 6 4 5 6 6
10 10 10 7 5 11 10 7 8 8 8 9 7 9 8 8 7 8 12 14 15 15 11 9 9 10 13 14 14 11 11 13 14 13 14 14 15 16 17 14 14 11 10 8 6 5 6 12 13
7 9 9 8 11 10 9 11 8 9 10 8 7 4 7 9 7 7 8 13 12 13 12 10 10 9 13 12 13 11 11 13 14 13 14 15 15 17 16 14 14 11 10 8 6 6 9 9 10
2 2 5 7 8 6 4 2 8 10 13 11 8 5 8 10 9 8 8 10 11 9 9 10 9 11 14 15 13 11 10 13 14 15 17 15 15 15 14 12 13 12 9 7 7 6 7 6 5
8 4 2 3 7 5 3 9 3 11 13 11 6 6 4 8 9 9 10 10 11 10 10 12 12 13 13 12 12 12 11 14 14 14 15 15 13 14 13 12 12 13 10 7 5 5 5 4 7
5 3 3 3 3 3 4 3 8 9 11 7 5 9 8 8 8 9 10 11 12 12 11 13 12 13 14 11 12 13 12 15 13 15 15 15 13 12 11 12 10 10 9 7 5 4 2 5 6
12 10 6 1 4 6 5 4 12 6 2 6 5 11 8 9 10 8 8 9 11 12 12 11 13 13 15 13 12 12 14 11 15 15 14 14 11 11 12 11 7 7 8 6 3 2 1 4 6
12 13 9 5 6 3 3 5 5 6 1 6 4 11 12 10 8 10 9 7 8 10 11 9 10 11 13 16 15 15 13 11 12 12 13 12 11 10 8 5 4 6 8 5 2 2 5 2 4
10 9 7 7 9 9 5 4 7 7 8 8 8 10 8 9 8 10 8 9 8 7 10 10 9 11 13 14 16 18 14 13 12 14 16 16 12 8 7 7 11 6 8 5 1 3 3 1 4
10 10 8 6 8 7 8 9 8 6 8 7 8 9 11 12 10 11 10 11 12 11 11 12 11 11 13 14 18 16 15 16 13 17 16 14 11 9 8 9 9 9 7 4 2 5 3 4 6
11 11 7 5 5 6 10 12 15 10 9 11 12 8 11 14 16 14 13 12 12 15 13 11 11 13 15 16 17 16 14 14 17 16 16 15 12 9 8 12 7 9 10 8 6 4 4 3 2
9 9 7 10 7 7 10 12 16 16 16 17 14 12 7 8 14 15 13 13 12 15 14 13 12 13 10 14 16 17 15 13 18 15 14 12 10 9 7 7 9 10 8 9 7 4 1 1 1
6 7 11 11 9 10 12 12 13 20 20 20 21 17 13 9 19 20 18 17 15 15 16 17 17 15 14 13 13 15 16 13 13 14 11 9 8 7 7 7 7 7 7 6 4 4 2 1 1
9 9 10 11 11 12 10 12 12 17 20 26 21 19 18 14 19 24 23 19 18 16 16 17 18 17 15 14 13 12 14 14 13 12 11 9 8 7 7 7 7 7 6 7 6 4 4 5 3
8 8 8 11 12 14 11 12 15 16 17 19 24 23 22 20 23 25 24 21 20 19 18 17 18 18 17 16 16 15 14 16 15 13 12 11 9 7 7 9 10 8 8 6 4 3 2 2 2
11 11 10 10 13 13 11 13 17 18 22 19 20 22 24 25 19 35 30 25 21 21 21 20 20 20 20 19 18 17 17 16 15 14 13 11 10 10 8 8 8 8 8 7 5 5 4 2 2
12 11 10 14 15 16 15 12 17 18 19 21 20 21 20 22 19 31 34 28 25 24 23 22 22 22 22 22 20 19 19 18 17 16 14 13 12 11 11 11 8 6 9 7 6 6 6 5 4
17 18 17 17 18 19 18 13 13 19 19 21 20 21 23 24 24 27 41 34 36 32 29 26 24 21 22 23 23 22 20 20 18 17 16 15 14 14 13 13 14 9 9 9 8 7 6 6 6
Wind_Direction
0 356 14 16 38 103 88 83 70 78 83 101 80 115 160 156 164 169 176 187 185 197 214 219 218 206 178 193 219 221 199 201 194 191 186 178 168 172 167 158 148 135 123 116 104 117 115 102 112
28 13 196 349 71 95 101 99 117 94 74 67 59 71 132 119 133 166 165 217 202 205 215 220 176 174 193 209 202 203 221 194 195 181 176 167 166 168 168 160 152 160 148 134 129 132 125 122 119
28 40 75 41 65 105 89 67 48 65 70 66 58 96 80 75 144 111 134 153 126 119 193 193 185 187 202 180 197 196 209 205 192 192 175 170 173 182 192 159 150 132 127 132 142 142 135 131 128
342 38 41 46 91 103 131 56 85 71 72 49 41 85 86 84 54 218 186 153 88 58 106 188 185 193 187 201 205 194 200 202 192 182 175 172 168 178 148 140 128 120 120 130 138 131 131 133 126
49 49 85 68 129 129 163 61 57 60 66 59 42 99 97 79 43 109 78 85 196 272 148 194 190 187 185 191 184 205 192 187 181 178 177 181 153 143 141 133 131 137 135 130 131 131 130 126 114
322 290 148 98 204 208 237 8 38 68 87 67 61 53 110 88 48 137 157 129 145 100 87 181 179 151 148 149 158 168 153 134 144 158 154 150 148 142 133 137 145 133 137 143 139 142 127 120 122
326 294 230 146 36 63 95 96 70 89 65 51 67 68 134 107 70 265 149 120 134 145 105 84 146 132 131 136 132 133 134 138 125 125 155 129 115 121 137 141 138 145 155 149 146 137 122 120 116
310 309 202 161 143 97 105 87 78 91 85 62 83 89 93 117 121 196 215 141 113 133 99 101 94 103 112 116 122 133 129 122 121 123 113 123 131 136 141 149 153 160 153 153 141 121 118 114 103
338 54 169 147 115 73 77 76 92 85 69 66 57 89 111 119 121 194 212 147 139 135 108 112 121 124 127 127 126 128 126 137 148 144 141 146 154 152 156 165 157 157 154 138 121 114 108 85 85
339 216 214 200 122 79 101 110 81 78 79 73 63 97 109 98 97 126 103 148 141 125 122 132 135 133 130 134 137 141 149 153 154 150 161 164 163 157 155 157 155 150 141 121 116 112 95 87 73
35 43 171 165 144 103 141 116 77 85 75 65 67 99 93 94 83 98 113 131 140 131 133 131 134 134 132 133 149 161 160 155 161 162 163 162 152 150 151 149 157 172 142 132 132 125 110 89 65
12 237 188 191 157 136 134 142 183 79 75 66 60 89 99 105 91 96 105 137 160 144 137 135 141 144 142 141 151 161 161 165 161 161 160 155 149 152 149 161 172 148 140 131 131 109 91 71 43
56 74 146 160 160 157 145 113 84 91 87 72 43 86 96 111 114 98 96 93 108 136 124 136 142 158 158 154 153 155 155 155 160 162 157 156 159 153 143 147 172 145 137 141 126 96 55 41 24
61 71 82 70 215 180 135 114 82 88 81 81 51 72 82 83 91 98 106 97 96 127 115 128 154 158 166 156 144 158 154 155 155 160 160 164 162 144 131 128 143 141 144 137 117 89 35 22 23
77 86 66 72 63 126 179 110 122 115 109 86 105 108 110 105 100 92 111 101 103 113 109 115 136 132 152 148 148 155 156 137 145 154 155 170 158 156 151 141 140 146 141 129 98 61 45 33 33
149 63 39 40 58 76 142 223 137 124 110 90 95 122 128 113 118 116 117 114 119 111 107 103 118 129 135 146 142 134 146 139 150 162 159 165 164 164 157 146 140 136 127 116 91 75 60 35 10
210 211 143 0 21 72 121 221 131 120 105 114 134 146 143 135 142 142 127 127 127 118 118 104 108 121 125 137 135 145 142 158 157 162 165 163 162 166 155 153 146 135 131 130 113 80 67 36 0
192 249 99 46 39 167 85 103 216 199 175 131 147 169 178 162 150 139 132 139 137 128 125 118 118 120 133 143 138 150 149 160 163 159 153 160 164 166 166 156 153 142 135 126 128 112 63 31 6
225 243 262 327 82 79 113 86 109 140 218 271 258 173 194 180 158 143 140 153 141 127 123 124 124 117 126 148 153 158 155 157 166 155 155 160 160 163 172 164 161 142 141 133 131 118 25 350 328
246 256 260 228 211 171 96 117 104 98 230 285 182 169 164 169 183 159 140 145 149 142 126 126 127 121 123 141 157 153 149 170 168 151 162 164 166 158 155 165 198 161 160 145 61 47 301 307 10
248 257 235 219 212 217 226 208 154 157 170 173 161 160 150 154 183 191 185 171 180 167 136 134 140 130 121 125 146 152 156 162 159 158 157 147 129 134 170 202 186 214 217 206 120 114 127 238 332
273 262 224 213 209 203 237 249 245 176 160 171 173 195 177 193 184 192 202 204 183 194 154 151 150 141 135 128 137 153 160 155 150 146 148 144 139 120 107 149 171 197 190 167 166 149 192 310 321
236 246 243 251 233 219 228 232 247 239 218 203 218 210 201 208 197 198 195 201 188 191 175 162 159 147 149 146 140 156 164 159 154 149 149 140 144 147 129 135 162 176 183 184 192 224 269 305 18
246 255 263 274 261 234 249 242 237 239 242 235 216 233 224 213 216 205 199 202 198 192 191 169 177 168 164 154 152 150 167 166 163 170 165 151 160 147 159 160 143 168 172 192 211 230 256 229 94
278 268 263 262 267 244 254 252 237 233 240 253 243 232 236 255 228 227 202 195 200 197 197 194 183 180 174 160 158 159 160 168 167 170 177 173 166 169 158 148 140 156 169 193 206 215 184 155 84
259 264 263 277 291 284 280 274 240 239 245 251 257 255 257 258 214 216 214 195 200 203 197 208 198 186 185 173 171 169 171 167 181 181 181 176 165 171 163 159 164 171 191 197 189 161 158 160 184
266 254 269 277 282 284 280 268 266 258 260 257 257 257 257 256 209 205 218 224 197 198 203 209 214 199 193 189 183 181 187 190 187 183 183 173 176 182 195 177 172 179 189 190 171 173 203 203 193
259 266 262 289 297 290 285 275 276 270 271 266 262 251 248 240 247 210 220 219 224 204 206 207 217 217 204 199 198 188 188 186 193 194 191 179 180 183 200 202 192 205 204 195 194 195 214 223 212
271 281 286 290 305 300 296 297 266 272 273 278 269 256 255 235 232 222 208 214 231 235 219 209 219 218 219 210 204 204 198 201 201 202 206 199 202 203 209 223 225 243 230 222 215 215 219 228 232
290 292 295 296 297 282 289 300 284 279 291 288 268 272 274 256 251 229 206 211 218 229 230 217 215 225 227 223 219 214 212 205 215 215 212 211 219 214 213 224 222 228 229 229 223 222 235 252 260
Height
5866 5865 5866 5866 5867 5864 5863 5863 5861 5861 5863 5863 5863 5863 5864 5865 5866 5869 5868 5868 5869 5870 5870 5870 5870 5871 5876 5878 5878 5880 5881 5883 5885 5886 5888 5891 5893 5894 5896 5896 5896 5897 5898 5899 5899 5899 5900 5900 5902
5867 5865 5866 5867 5867 5864 5864 5862 5863 5863 5863 5863 5863 5863 5865 5865 5866 5866 5868 5868 5868 5869 5869 5869 5869 5871 5874 5875 5876 5878 5881 5882 5884 5886 5887 5891 5893 5895 5896 5896 5897 5897 5898 5899 5900 5901 5901 5901 5903
5868 5868 5868 5868 5866 5865 5864 5864 5864 5865 5864 5864 5864 5864 5864 5865 5866 5866 5867 5867 5867 5868 5868 5869 5869 5871 5872 5873 5875 5878 5880 5880 5883 5885 5888 5891 5893 5895 5896 5894 5897 5897 5899 5900 5900 5902 5903 5904 5905
5869 5870 5871 5869 5867 5865 5865 5865 5865 5865 5866 5865 5865 5865 5865 5865 5865 5865 5866 5866 5866 5868 5868 5868 5869 5871 5872 5872 5874 5876 5878 5876 5881 5886 5889 5891 5893 5893 5894 5895 5899 5900 5902 5903 5903 5904 5905 5906 5906
5870 5871 5872 5870 5869 5867 5866 5866 5867 5867 5866 5866 5866 5865 5864 5864 5865 5865 5865 5867 5869 5869 5869 5869 5870 5872 5873 5873 5875 5877 5876 5877 5881 5886 5890 5892 5893 5896 5898 5899 5901 5901 5903 5905 5906 5906 5907 5907 5909
5870 5872 5873 5872 5871 5869 5868 5866 5868 5867 5868 5867 5867 5867 5865 5863 5865 5866 5866 5868 5871 5870 5870 5869 5869 5871 5872 5874 5875 5879 5878 5877 5884 5888 5892 5894 5894 5898 5900 5903 5903 5904 5905 5907 5907 5908 5909 5909 5911
5868 5869 5872 5873 5873 5870 5869 5869 5868 5868 5868 5868 5868 5867 5866 5864 5865 5867 5868 5870 5872 5872 5872 5872 5868 5869 5872 5874 5874 5879 5882 5885 5889 5891 5894 5896 5899 5900 5904 5905 5905 5907 5908 5908 5909 5910 5911 5912 5913
5868 5865 5870 5872 5873 5871 5870 5870 5869 5869 5869 5869 5868 5867 5868 5866 5866 5868 5869 5871 5871 5871 5870 5872 5872 5872 5875 5878 5880 5883 5886 5888 5891 5894 5896 5899 5901 5903 5905 5907 5908 5910 5911 5911 5913 5914 5914 5915 5916
5867 5864 5867 5871 5872 5871 5871 5872 5871 5871 5870 5869 5869 5868 5868 5867 5867 5869 5870 5871 5872 5872 5871 5874 5877 5877 5879 5882 5885 5886 5888 5891 5893 5896 5898 5900 5903 5905 5907 5909 5911 5913 5914 5915 5916 5918 5918 5919 5918
5865 5865 5867 5871 5872 5871 5871 5874 5872 5872 5870 5870 5870 5870 5870 5869 5870 5872 5872 5873 5874 5874 5875 5877 5878 5880 5882 5885 5887 5889 5892 5893 5895 5898 5900 5902 5905 5907 5910 5912 5914 5916 5917 5918 5919 5920 5921 5921 5922
5864 5862 5864 5869 5871 5872 5873 5874 5872 5872 5870 5871 5872 5871 5871 5871 5872 5874 5874 5875 5875 5876 5877 5879 5880 5881 5882 5886 5888 5890 5891 5893 5897 5899 5901 5905 5907 5910 5912 5914 5917 5919 5920 5921 5922 5923 5924 5924 5925
5865 5864 5864 5867 5872 5873 5873 5874 5873 5873 5872 5873 5874 5872 5872 5873 5875 5876 5875 5876 5876 5877 5879 5881 5882 5883 5884 5885 5887 5891 5893 5895 5898 5900 5905 5907 5909 5912 5914 5916 5919 5921 5922 5923 5925 5927 5926 5927 5927
5867 5866 5866 5868 5870 5872 5875 5875 5875 5874 5874 5874 5875 5873 5874 5875 5877 5879 5878 5878 5876 5880 5881 5882 5882 5883 5885 5886 5889 5891 5893 5896 5900 5903 5905 5908 5911 5913 5915 5917 5920 5922 5924 5925 5927 5928 5929 5930 5930
5870 5869 5870 5870 5871 5872 5872 5875 5875 5875 5876 5875 5876 5875 5876 5878 5879 5880 5880 5880 5880 5881 5883 5882 5882 5883 5885 5887 5889 5892 5895 5899 5901 5904 5907 5910 5912 5913 5916 5918 5921 5923 5925 5927 5928 5929 5931 5933 5933
5871 5871 5871 5872 5873 5873 5873 5874 5875 5877 5876 5876 5876 5878 5877 5878 5880 5882 5883 5881 5882 5882 5883 5883 5882 5883 5885 5889 5890 5894 5898 5899 5901 5905 5908 5911 5913 5914 5917 5919 5922 5925 5926 5927 5929 5931 5933 5933 5933
5872 5872 5872 5873 5872 5873 5871 5874 5876 5877 5876 5877 5878 5880 5880 5879 5880 5883 5884 5884 5883 5883 5884 5885 5885 5885 5886 5890 5891 5894 5899 5900 5902 5906 5908 5911 5914 5917 5920 5922 5923 5925 5927 5928 5930 5932 5932 5933 5933
5873 5873 5874 5874 5872 5873 5873 5870 5871 5878 5878 5878 5880 5881 5882 5883 5883 5883 5885 5886 5884 5885 5886 5887 5887 5888 5889 5891 5893 5896 5900 5902 5904 5907 5909 5912 5915 5919 5921 5924 5924 5925 5927 5929 5930 5932 5933 5933 5934
5872 5872 5873 5874 5873 5872 5873 5874 5875 5876 5879 5880 5882 5882 5883 5883 5884 5885 5886 5887 5886 5886 5888 5890 5890 5890 5891 5893 5896 5898 5902 5904 5906 5907 5909 5912 5916 5920 5923 5924 5924 5926 5929 5930 5931 5932 5933 5933 5935
5869 5871 5871 5872 5872 5872 5873 5874 5874 5875 5876 5878 5881 5880 5882 5884 5885 5884 5887 5888 5888 5887 5889 5892 5892 5892 5892 5893 5897 5900 5904 5905 5909 5909 5911 5914 5918 5921 5923 5924 5926 5927 5929 5931 5931 5932 5932 5934 5933
5868 5868 5870 5871 5872 5872 5873 5873 5874 5874 5875 5876 5877 5880 5880 5883 5884 5885 5887 5888 5888 5889 5890 5892 5893 5894 5895 5894 5898 5901 5904 5906 5910 5910 5913 5916 5919 5921 5922 5924 5926 5927 5929 5931 5932 5932 5931 5933 5933
5867 5867 5868 5869 5870 5871 5872 5873 5874 5876 5876 5875 5876 5878 5880 5881 5883 5884 5887 5890 5890 5890 5891 5893 5895 5896 5896 5895 5897 5901 5904 5909 5910 5912 5914 5918 5919 5919 5920 5923 5925 5927 5928 5931 5932 5931 5931 5933 5933
5865 5866 5866 5866 5869 5870 5871 5871 5872 5874 5873 5875 5875 5876 5878 5880 5883 5884 5886 5889 5891 5891 5891 5895 5897 5898 5898 5898 5897 5900 5904 5908 5911 5914 5916 5916 5918 5920 5920 5921 5924 5926 5928 5931 5931 5931 5932 5932 5933
5864 5863 5863 5865 5867 5868 5870 5871 5871 5873 5874 5875 5876 5875 5876 5880 5880 5883 5884 5886 5890 5892 5891 5894 5897 5899 5900 5900 5900 5901 5903 5906 5909 5913 5915 5917 5917 5919 5920 5921 5923 5923 5926 5928 5930 5931 5932 5933 5932
5861 5861 5863 5863 5865 5867 5867 5869 5869 5870 5871 5872 5874 5874 5875 5878 5878 5880 5882 5884 5888 5891 5892 5894 5898 5899 5900 5900 5900 5902 5905 5907 5909 5912 5915 5916 5917 5918 5920 5922 5923 5924 5926 5928 5929 5930 5930 5932 5931
5859 5861 5861 5863 5863 5865 5865 5866 5867 5867 5868 5868 5869 5871 5871 5873 5876 5877 5881 5882 5885 5888 5891 5894 5898 5900 5901 5901 5902 5903 5904 5906 5909 5912 5914 5916 5917 5918 5920 5921 5923 5925 5926 5927 5928 5930 5930 5930 5930
5858 5859 5859 5859 5860 5860 5861 5861 5862 5863 5864 5864 5866 5868 5869 5870 5870 5874 5877 5880 5882 5885 5888 5893 5896 5899 5901 5901 5901 5903 5905 5906 5908 5911 5913 5915 5916 5919 5920 5921 5923 5925 5926 5927 5928 5929 5929 5930 5931
5856 5857 5858 5857 5857 5856 5858 5858 5858 5859 5859 5860 5861 5864 5866 5867 5868 5871 5873 5875 5880 5883 5885 5889 5893 5896 5898 5901 5902 5903 5905 5906 5907 5909 5911 5913 5915 5918 5920 5921 5922 5923 5925 5926 5926 5927 5928 5930 5931
5855 5856 5856 5856 5855 5854 5855 5855 5854 5854 5853 5855 5855 5857 5859 5862 5863 5865 5869 5871 5875 5880 5883 5886 5890 5894 5897 5900 5903 5904 5906 5906 5907 5908 5910 5911 5913 5916 5918 5921 5922 5923 5924 5924 5925 5927 5928 5929 5930
5852 5852 5853 5853 5853 5851 5850 5852 5849 5848 5848 5848 5849 5852 5853 5856 5856 5859 5865 5866 5869 5875 5880 5883 5887 5890 5895 5897 5899 5902 5904 5905 5907 5908 5910 5910 5911 5914 5916 5918 5919 5920 5922 5923 5924 5927 5929 5929 5929
5847 5847 5848 5848 5850 5848 5847 5849 5846 5845 5845 5844 5845 5847 5848 5848 5851 5853 5858 5861 5867 5869 5873 5878 5883 5886 5889 5893 5896 5898 5901 5903 5904 5906 5908 5910 5911 5912 5914 5915 5917 5919 5921 5923 5924 5926 5927 5928 5927